Salem, IL

7:54 PM CDT on June 27, 2017 (GMT -0500)
Salem-Leckrone

Weather History for KSLO - August, 2014

Change the Weather History Date:

Sunday, August 17, 2014

  Actual Average Record
Temperature  
Mean Temperature 75 °F -  
Max Temperature 81 °F 88 °F 104 °F (1988)
Min Temperature 70 °F 65 °F 54 °F (1964)
Cooling Degree Days 10    
Growing Degree Days 25 (Base 50)    
Moisture  
Dew Point 72 °F    
Average Humidity 91    
Maximum Humidity 98    
Minimum Humidity 78    
Precipitation  
Precipitation 1.97 in - - ()
Sea Level Pressure  
Sea Level Pressure 29.88 in    
Wind  
Wind Speed 4 mph (ENE)    
Max Wind Speed 10 mph    
Max Gust Speed 16 mph    
Visibility 7 miles    
Events Rain , Thunderstorm    
Averages and records for this station are not official NWS values.
T = Trace of Precipitation, MM = Missing Value Source: NWS Daily Summary

Daily Weather History Graph

Daily Weather History Graph

Search for Another Location

Airport or City:

Trip Planner

Search our weather history database for the weather conditions in past years. The results will help you decide how hot, cold, wet, or windy it might be!

Date:

Astronomy

Aug. 17, 2014 Rise Set
Actual Time 6:11 AM CDT 7:47 PM CDT
Civil Twilight 5:43 AM CDT 8:15 PM CDT
Nautical Twilight 5:09 AM CDT 8:49 PM CDT
Astronomical Twilight 4:33 AM CDT 9:25 PM CDT
Moon No Moon Rise 1:51 PM CDT (8/17)
Length of Visible Light 14h 32m
Length of Day
13h 35m
Waning Gibbous, 48% of the Moon is Illuminated
Aug 17
Waning Gibbous
Aug 25
New
Sep 2
First Quarter
Sep 8
Full
Sep 15
Last Quarter

Hourly Weather History & Observations

Time (CDT) Temp. Heat Index Dew Point Humidity Pressure Visibility Wind Dir Wind Speed Gust Speed Precip Events Conditions
12:15 AM 73.4 °F - 70.9 °F 92% 29.90 in 2.0 mi Calm Calm - 0.10 in Rain , Thunderstorm Heavy Thunderstorms and Rain
12:35 AM 72.9 °F - 70.9 °F 93% 29.90 in 4.0 mi East 5.8 mph - 0.26 in Rain , Thunderstorm Heavy Thunderstorms and Rain
12:55 AM 73.0 °F - 70.9 °F 93% 29.92 in 5.0 mi WNW 10.4 mph 16.1 mph 0.35 in Rain , Thunderstorm Heavy Thunderstorms and Rain
1:15 AM 72.5 °F - 70.9 °F 95% 29.89 in 1.8 mi Calm Calm - 0.24 in Rain , Thunderstorm Heavy Thunderstorms and Rain
1:35 AM 72.1 °F - 70.9 °F 96% 29.91 in 2.5 mi South 3.5 mph - 0.36 in Rain , Thunderstorm Heavy Thunderstorms and Rain
1:55 AM 72.0 °F - 70.9 °F 96% 29.88 in 2.0 mi East 8.1 mph - 0.66 in Rain , Thunderstorm Heavy Thunderstorms and Rain
2:15 AM 72.0 °F - 70.9 °F 96% 29.87 in 4.0 mi SE 5.8 mph - 0.03 in Rain , Thunderstorm Thunderstorms and Rain
2:35 AM 72.1 °F - 70.9 °F 96% 29.86 in 7.0 mi ESE 5.8 mph - 0.03 in Rain , Thunderstorm Thunderstorms and Rain
2:55 AM 72.0 °F - 70.9 °F 96% 29.85 in 5.0 mi ESE 5.8 mph - 0.06 in Rain Heavy Rain
3:15 AM 72.0 °F - 70.9 °F 96% 29.86 in 4.0 mi ESE 6.9 mph - 0.05 in Rain , Thunderstorm Heavy Thunderstorms and Rain
3:35 AM 72.1 °F - 71.1 °F 96% 29.86 in 5.0 mi SE 8.1 mph - 0.08 in Rain , Thunderstorm Thunderstorms and Rain
3:55 AM 72.3 °F - 71.2 °F 96% 29.83 in 3.0 mi ESE 8.1 mph - 0.25 in Rain , Thunderstorm Heavy Thunderstorms and Rain
4:15 AM 72.5 °F - 71.2 °F 96% 29.84 in 7.0 mi Calm Calm - 0.03 in Rain , Thunderstorm Heavy Thunderstorms and Rain
4:35 AM 72.1 °F - 71.1 °F 96% 29.84 in 7.0 mi SE 6.9 mph - 0.06 in Rain , Thunderstorm Light Thunderstorms and Rain
4:55 AM 72.1 °F - 71.1 °F 96% 29.84 in 10.0 mi SE 5.8 mph - 0.06 in   Overcast
5:15 AM 72.3 °F - 71.1 °F 96% 29.85 in 7.0 mi East 3.5 mph - 0.01 in Rain , Thunderstorm Heavy Thunderstorms and Rain
5:35 AM 72.3 °F - 71.1 °F 96% 29.84 in 10.0 mi ESE 4.6 mph - 0.03 in Rain , Thunderstorm Light Thunderstorms and Rain
5:55 AM 72.1 °F - 71.2 °F 97% 29.87 in 7.0 mi West 6.9 mph - 0.12 in Rain Heavy Rain
6:15 AM 72.1 °F - 71.2 °F 97% 29.86 in 5.0 mi SSW 5.8 mph - 0.10 in Rain Rain
6:35 AM 72.0 °F - 71.1 °F 97% 29.86 in 7.0 mi SSE 4.6 mph - 0.12 in Rain Rain
6:55 AM 72.0 °F - 70.9 °F 96% 29.87 in 7.0 mi SSE 4.6 mph - 0.14 in Rain Rain
7:15 AM 72.0 °F - 70.9 °F 96% 29.86 in 5.0 mi SE 6.9 mph - 0.04 in Rain Rain
7:35 AM 72.1 °F - 71.1 °F 96% 29.87 in 7.0 mi SE 3.5 mph - 0.04 in Rain Rain
7:55 AM 72.1 °F - 71.1 °F 96% 29.87 in 5.0 mi SSE 3.5 mph - 0.07 in Rain Rain
8:15 AM 72.5 °F - 71.2 °F 96% 29.87 in 10.0 mi SSE 4.6 mph - N/A Rain Light Rain
8:35 AM 72.5 °F - 71.2 °F 96% 29.86 in 10.0 mi Calm Calm - N/A Rain Light Rain
8:55 AM 72.7 °F - 71.6 °F 96% 29.85 in 10.0 mi South 4.6 mph - N/A Rain Light Rain
9:15 AM 73.0 °F - 71.8 °F 96% 29.86 in 10.0 mi Calm Calm - N/A   Light Drizzle
9:35 AM 73.8 °F - 72.5 °F 96% 29.87 in 10.0 mi NE 4.6 mph - N/A   Overcast
9:55 AM 73.4 °F - 72.0 °F 95% 29.87 in 10.0 mi East 3.5 mph - N/A   Overcast
10:15 AM 74.7 °F - 72.0 °F 91% 29.87 in 10.0 mi Calm Calm - N/A   Overcast
10:35 AM 75.6 °F - 72.1 °F 89% 29.87 in 10.0 mi Calm Calm - N/A   Overcast
10:55 AM 77.0 °F - 72.7 °F 86% 29.87 in 10.0 mi Calm Calm - N/A   Overcast
11:15 AM 77.4 °F - 72.7 °F 85% 29.87 in 10.0 mi Calm Calm - N/A   Mostly Cloudy
11:35 AM 78.4 °F - 72.7 °F 82% 29.87 in 10.0 mi Calm Calm - N/A   Overcast
11:55 AM 77.9 °F - 73.2 °F 85% 29.87 in 10.0 mi NNW 3.5 mph - N/A   Overcast
12:15 PM 78.3 °F - 73.6 °F 85% 29.87 in 10.0 mi North 3.5 mph - N/A   Overcast
12:35 PM 76.1 °F - 73.6 °F 92% 29.88 in 5.0 mi North 8.1 mph - 0.01 in Rain Heavy Rain
12:55 PM 74.7 °F - 72.9 °F 94% 29.88 in 2.0 mi NNE 9.2 mph - 0.13 in Rain Heavy Rain
1:15 PM 74.3 °F - 73.0 °F 96% 29.89 in 2.0 mi NE 4.6 mph - 0.09 in Rain Heavy Rain
1:35 PM 74.3 °F - 72.9 °F 95% 29.89 in 2.5 mi NE 5.8 mph - 0.13 in Rain Rain
1:55 PM 74.3 °F - 72.7 °F 95% 29.89 in 4.0 mi NE 4.6 mph - 0.13 in Rain Rain
2:15 PM 75.6 °F - 73.6 °F 94% 29.89 in 10.0 mi NNE 3.5 mph - N/A   Overcast
2:35 PM 77.0 °F - 73.0 °F 88% 29.89 in 10.0 mi NE 4.6 mph - N/A   Overcast
2:55 PM 77.7 °F - 73.9 °F 88% 29.88 in 10.0 mi NE 4.6 mph - N/A   Overcast
3:15 PM 78.8 °F - 73.4 °F 83% 29.88 in 10.0 mi NNE 5.8 mph - N/A   Overcast
3:35 PM 79.5 °F - 72.9 °F 80% 29.88 in 10.0 mi NNE 5.8 mph - N/A   Mostly Cloudy
3:55 PM 79.7 °F - 72.7 °F 79% 29.88 in 10.0 mi NNW 5.8 mph - N/A   Overcast
4:15 PM 80.4 °F 84.8 °F 72.9 °F 78% 29.88 in 7.0 mi NNE 3.5 mph - N/A   Mostly Cloudy
4:35 PM 77.9 °F - 72.3 °F 83% 29.87 in 7.0 mi NE 4.6 mph - N/A   Mostly Cloudy
4:55 PM 78.8 °F - 73.4 °F 83% 29.87 in 10.0 mi Calm Calm - N/A   Overcast
5:15 PM 78.6 °F - 72.9 °F 82% 29.86 in 10.0 mi Calm Calm - N/A   Scattered Clouds
5:35 PM 78.8 °F - 72.7 °F 81% 29.86 in 10.0 mi NE 4.6 mph - N/A   Mostly Cloudy
5:55 PM 79.2 °F - 72.7 °F 80% 29.86 in 10.0 mi NE 5.8 mph - N/A   Scattered Clouds
6:15 PM 80.4 °F 84.8 °F 72.9 °F 78% 29.86 in 10.0 mi NNE 9.2 mph - N/A   Scattered Clouds
6:35 PM 79.2 °F - 72.5 °F 80% 29.87 in 10.0 mi North 4.6 mph - N/A   Scattered Clouds
6:55 PM 79.2 °F - 71.8 °F 78% 29.88 in 10.0 mi NNE 4.6 mph - N/A   Clear
7:15 PM 78.4 °F - 71.6 °F 79% 29.88 in 10.0 mi NNE 3.5 mph - N/A   Clear
7:35 PM 77.4 °F - 71.6 °F 82% 29.88 in 10.0 mi Calm Calm - N/A   Clear
7:55 PM 75.2 °F - 71.8 °F 89% 29.89 in 10.0 mi Calm Calm - N/A   Clear
8:15 PM 73.6 °F - 71.6 °F 93% 29.89 in 10.0 mi Calm Calm - N/A   Scattered Clouds
8:35 PM 73.6 °F - 72.1 °F 95% 29.90 in 7.0 mi Calm Calm - N/A   Mostly Cloudy
8:55 PM 73.2 °F - 71.8 °F 95% 29.90 in 10.0 mi Calm Calm - N/A   Scattered Clouds
9:15 PM 72.7 °F - 71.4 °F 96% 29.89 in 7.0 mi Calm Calm - N/A   Clear
9:35 PM 73.6 °F - 71.2 °F 92% 29.89 in 10.0 mi Calm Calm - N/A   Clear
9:55 PM 72.3 °F - 70.3 °F 93% 29.89 in 10.0 mi Calm Calm - N/A   Clear
10:15 PM 70.7 °F - 69.6 °F 96% 29.89 in 7.0 mi Calm Calm - N/A   Clear
10:35 PM 70.7 °F - 69.1 °F 95% 29.90 in 7.0 mi Calm Calm - N/A   Clear
10:55 PM 70.3 °F - 69.4 °F 97% 29.90 in 1.5 mi Calm Calm - N/A   Mist
11:15 PM 70.5 °F - 69.8 °F 98% 29.90 in 1.0 mi Calm Calm - N/A   Mist
11:35 PM 70.0 °F - 69.3 °F 98% 29.90 in 1.5 mi Calm Calm - N/A   Mist
11:55 PM 70.0 °F - 69.3 °F 98% 29.91 in 3.0 mi Calm Calm - N/A   Mostly Cloudy